Portada
METAR-TAF:

METAR-TAF

Aeroports :

Richard I. Bong Airport

Superior, Wisconsin, Estats Units d'Amèrica

latitud: 46-41-23N, longitud: 092-05-41W, altitud: 205 m

Observació

L'informe es va fer fa 24 minuts, a les 03:55 UTC
Vent 3 kt del Nord-Est
Temperatura 16°C
Humitat 100%
Pressió 1020 hPa
Visibilitat: 16.1 km
Cel clar

METAR: KSUW 180355Z AUTO 05003KT 10SM CLR 16/16 A3013 RMK AO2 T01620161

Hora: 23:19 (04:19 UTC)


TAF: manca

Observacions i pronòstics meteorològics de més de 4000 aeroports (METAR i TAF).

Les estacions disponibles són els punts grocs i vermells al mapa.

Posi el ratolí al punt desitjat per veure el nom de l'estació.

Feu clic per veure les observacions i els pronòstics meteorològics.

Per canviar el mapa: feu clic els botons verds amb una creu de color negre per apropar; al botó verd amb un guió per allunyar la imatge; o en les fletxes verdes per a mapes adjacents.


METAR-TAF: